Powrót do katalogu

STARLINK-37511

AktywnyŁącznośćVLEO
NORAD 69512·PAYLOAD·🇺🇸 United States

Wystrzelony Jun 12, 2026 z Cape Canaveral Space Force Station

Loading…

Następne Przeloty (najbliższe 24 godziny)

TLE

ŚwieżeSource: CelesTrak SupGP

Epoka: Sep 14, 2026, 23:40 UTC

1 69512C 26133E   26257.98659722  .00028436  00000+0  83967-3 0  2573
2 69512  53.1566 255.6812 0002407  47.7432 356.2479 15.34392609    19

Śledź STARLINK-37511 w czasie rzeczywistym z AllMySat

Download on the App Store